Погода Завитая

Погода Завитая : погода сейчас, прогноз погоды и архив. Всё, что Вы хотите узнать о погоде Завитая!

Поиск расширенной информации на нашем сайте:

Другие новости

Новости СМИ2

Главная страница сайта

Новости сайта

03.07.2017

Напоминаем, что на нашем специализированном сайте Метеоцентр.Азия вы можете получить высокодетализированные автоматические прогнозы погоды по пунктам России, СНГ и мира в авиационном формате (включающие направление и скорость ветра, видимость, явления погоды, количество и форму облачности, нижнюю и верхнюю границу облачности).


Погода Завитая - сегодня

Время (UTC), дата Ветер
(°,м/с) 
Видим.   Явления Облачность Т
(°С)
Тd
(°С)
f(%) Тe
(°С)
Pmin
(гПа)
dP
(гПа)
Po
(мм)
O2
(г/м3)
Тmin Tmax R s Состояние
почвы
03 20.02.18 310 (СЗ) 20000 м    ясно 
-18.6 -28.4 42 -24  1017.7  0.6  739  321           
06 20.02.18 290 (З) 20000 м    ясно 
-15.9 -28.2 34 -21  1016.9  -0.3  739  318           
09 20.02.18 280 (З) 20000 м    ясно 
-17.7 -26.8 45 -18  1018  0.7  739  320           
12 20.02.18 230 (ЮЗ) 20000 м    ясно 
-20.9 -27.4 56 -24  1018.8  0.4  740  325    -15.6       
15 20.02.18 230 (ЮЗ) 20000 м    ясно 
-21 -28.3 52 -24  1018.1  -0.7  739  324           
18 20.02.18 230 (ЮЗ) 20000 м    ясно 
-21.4 -28.9 51 -24  1017.2  -0.8  739  325           
21 20.02.18 230 (ЮЗ) 20000 м    ясно 
-22.6 -29.4 54 -26  1017.1  -0.3  738  326           
03 21.02.18 240 (ЮЗ) 20000 м    ясно 
-14.3 -26.1 36 -16  1015.4  -0.3  738  315           
06 21.02.18 230 (ЮЗ) 20000 м    3/0 верхняя 
[Ci fib]
-12.2 -25.5 32 -16  1013.4  -1.6  737  312           
09 21.02.18 190 (Ю) 20000 м    9/0 верхняя 
[Ci fib]
-14.8 -25.4 40 -15  1013.8  737  316           
15 21.02.18 тихо ()   20000 м    ясно 
-20.7 -25.1 68 -21  1014.5  -0.6  737  323           
18 21.02.18 200 (Ю) 20000 м    ясно 
-22.5 -25.7 75 -25  1014.1  -0.5  736  325           
21 21.02.18 тихо ()   20000 м    ясно 
-25.9 -29.4 72 -26  1014.5  -0.1  736  330           
03 22.02.18 330 (СЗ) 20000 м    ясно 
-13.6 -24.6 39 -16  1014.6  0.6  737  314           
06 22.02.18 280 (З) 20000 м    3/0 верхняя 
[Ci fib]
-11.5 -25.3 31 -13  1013.8  -0.4  737  312           
09 22.02.18 330 (СЗ) 20000 м    3/0 верхняя 
[Ci fib]
-15.4 -25.4 42 -18  1016  1.7  738  317           
12 22.02.18 270 (З) 20000 м    ясно 
-20.2 -26.5 57 -20  1018.5  1.8  740  324    -11.5       
15 22.02.18 260 (З) 20000 м    ясно 
-24.1 -28.2 69 -25  1019.9  0.8  740  329           
18 22.02.18 тихо ()   20000 м    ясно 
-27 -30.7 71 -27  1020.8  0.5  741  333           
21 22.02.18 тихо ()   20000 м    ясно 
-27.5 -31.3 70 -28  1022.2  1.2  742  334           
03 23.02.18 330 (СЗ) 20000 м    ясно 
-13.5 -26.1 34 -13  1022.6  0.5  743  317           
06 23.02.18 280 (З) 20000 м    3/0 верхняя 
[Ci fib]
-12.7 -27.1 29 -13  1022.8  0.2  743  316           
09 23.02.18 320 (СЗ) 20000 м    3/0 верхняя 
[Ci fib]
-15.9 -24.6 47 -18  1025.1  1.8  745  320           
15 23.02.18 230 (ЮЗ) 20000 м    ясно 
-22.9 -28 63 -26  1028.5  0.6  747  330           
18 23.02.18 250 (З) 20000 м    ясно 
-23.6 -28 67 -24  1029.3  0.6  747  331           
Время (UTC), дата Ветер
(°,м/с) 
Видим.   Явления Облачность Т
(°С)
Тd
(°С)
f(%) Тe
(°С)
Pmin
(гПа)
dP
(гПа)
Po
(мм)
O2
(г/м3)
Тmin Tmax R s Состояние
почвы

Для получения пояснительной информации подведите курсор к названию столбца.

ПОГОДА Завитая - архив

Всё, что Вы хотите узнать о погоде Завитая - удобно и подробно!

Выберите нужную дату (начиная с 1 января 2015* года) и нажмите кнопку "Найти".
Будут отображены архивные сводки погоды по пункту Завитая, начиная с указанной даты.


Отображать данные в формате CSV (для использования в таблицах Excel)


Внимание! Наш архив погоды предназначен исключительно для личного некоммерческого использования в познавательных целях. Если Вам необходимы официальные справки о состоянии погоды (для производственных, юридических, коммерческих и т.п. целей), обращайтесь в органы Росгидромета.

*Примечание: данная дата относится к архиву по метеостанциям СССР (Россия, СНГ, Балтия).
Архив по метеостанциям Зарубежной Европы и Азии (кроме Китая) хранится 10 дней, по другим регионам земного шара (Китай, Африка, Америка, Австралия, Океания) - 1 день.

Завитая - район местоположения метеостанции


Название, широта, долгота, высота метеостанции:
Завитая 50.1°ш. 129.5°д. 241 м над ур. моря [Российская Федерация]

Дополнительная информация

В oтличие oт бoльшинства пoгoдных сайтoв мы публикуем пoдрoбную метеoинфoрмацию в детальнoм прoфессиoнальнoм фoрмате.

Характеристики температуры и влажнoсти вoздуха измеряются на высoте 2 м в тени вдали oт зданий и деревьев.
Скoрoсть ветра измеряется на высoте 10 м (на урoвне рoста челoвека скoрoсть ветра ниже в 1.5-2 раза). Если метеoстанция нахoдится в гoрoде или в лесу, тo скoрoсть ветра занижена на 2-4 м/с пo сравнению с oткрытым местoм. Скoрoсть ветра над акватoриями крупных рек и oзёр, а также на вершинах хoлмoв на 2-5 м/с выше, чем в oбычных услoвиях.
Атмoсфернoе давление в разных тoчках местнoсти мoжет значительнo oтличаться oт давления на метеoстанции, в зависимoсти oт услoвий рельефа (при пoдъёме на 10 м давление пoнижается примернo на 1 мм рт.ст.).